ROMMA est une association bénévole à but non lucratif. Votre soutien est indispensable : ADHERER à ROMMA ou FAIRE un DON

La Javie - (04, Alpes de Haute Provence)

Vallée de la Bléone (820 m)   Longitude: 06° 21' E   Latitude: 44° 10' N Station partenaire n°129
 

Détail journalier du     <<     >>

Température Precipitation Humidité Pression Vent Dir Rafale Dir. rafale Ensol.
Heure (°C) (mm) (%) (hPa) (km/h) (km/h) (min)
01:00 11.6095101400---0
02:00 11.1097101400---0
03:00 10.6097101300---0
04:00 9.6098101400---0
05:00 9.1099101400---0
06:00 8.80100101400---0
07:00 8.2099101400---0
08:00 8.60100101403---0
09:00 10.1098101400---0
10:00 17.10.263101306---0
11:00 19.305110131---10---0
12:00 20.704810132---16---0
13:00 21.605010134---18---0
14:00 22.605110135---18---0
15:00 23.303910127---26---0
16:00 24.203910127---19---0
17:00 23.503210134---21---0
18:00 22.403410136---27---0
19:00 21.403610133---16---0
20:00 19.6044101408---0
21:00 16.2059101600---0
22:00 13.6071101600---0
23:00 11.7080101702---0
minuit 10.8084101800---0

Graphique du 06-05-2020

 

Serveur OMMA